Regional Weather Roundup
Issued by NWS Sioux Falls, SD

Home | Current Version | Previous Version | Graphics & Text | Print | Product List | Glossary On
Versions: 1 2 3 4 5 6 7 8 9 10 11 12 13 14 15 16 17 18 19 20 21 22 23 24 25 26 27 28 29 30 31 32 33 34 35 36 37 38 39 40 41 42 43 44 45 46 47 48 49 50
000
ASUS43 KFSD 190610
RWRFSD

WEATHER ROUNDUP FOR SE SOUTH DAKOTA/SW MINNESOTA/NW IOWA
NATIONAL WEATHER SERVICE SIOUX FALLS SD
1200 AM CST MON FEB 19 2018

NOTE: "FAIR" INDICATES FEW OR NO CLOUDS BELOW 12,000 FEET WITH NO
SIGNIFICANT WEATHER AND OR OBSTRUCTIONS TO VISIBILITY.


SDZ038>040-050-052>070-190700-
SOUTHEAST SOUTH DAKOTA

CITY           SKY/WX    TMP DP  RH WIND       PRES   REMARKS
BROOKINGS      FLURRIES  14  10  84 N21G28    29.77F WCI  -4
CHAMBERLAIN    CLOUDY    14   9  81 N23G31    29.85F WCI  -5
6HR MIN TEMP:  14; 6HR MAX TEMP:  23;

HURON          MOCLDY    12   7  80 N28G35    29.89F WCI  -9
6HR MIN TEMP:  12; 6HR MAX TEMP:  22; 6HR PCP: TRACE;

MADISON        FAIR      14  14 100 NE22G32   29.77F WCI  -4
MITCHELL       MOCLDY    15  10  80 N23G33    29.85R WCI  -3
6HR MIN TEMP:  15; 6HR MAX TEMP:  27;

SIOUX FALLS    CLOUDY    19  14  81 N16       29.76S WCI   4
6HR MIN TEMP:  19; 6HR MAX TEMP:  36;

WINNER         FLURRIES  15   9  76 N26       29.89R WCI  -4
YANKTON        CLOUDY    23  18  81 N22       29.78R WCI   8
$$

MNZ071-072-080-081-089-090-097-098-190700-
SOUTHWEST MINNESOTA

CITY           SKY/WX    TMP DP  RH WIND       PRES   REMARKS
FAIRMONT       CLEAR     25  21  85 N22       29.74R WCI  10
JACKSON        CLEAR     23  19  86 N15G22    29.73R WCI  10
LUVERNE        CLOUDY    19  14  79 N14G26    29.75S WCI   6
MARSHALL       PTCLDY    16  12  84 N21       29.81F WCI  -1
6HR MIN TEMP:  16; 6HR MAX TEMP:  32;

MONTEVIDEO     LGT SNOW  19  14  79 N12       29.84F WCI   7
PIPESTONE      CLEAR     16  12  86 NE16G31   29.76R WCI   0
REDWOOD FALLS  CLOUDY    21  15  78 N10G22    29.79S WCI  10
TRACY          PTCLDY    19  15  85 N15G22    29.79S WCI   5
WINDOM         CLOUDY    21   7  53 N23G31    29.74S WCI   5
WORTHINGTON    CLOUDY    19  15  84 N23       29.74R WCI   2
$$

IAZ001>003-012>014-020>022-031-032-NEZ013-014-SDZ071-190700-
NORTHWEST IOWA

CITY           SKY/WX    TMP DP  RH WIND       PRES   REMARKS
CHEROKEE       CLOUDY    29  24  81 N16       29.72R WCI  18
DENISON        CLOUDY    37  34  87 NW3       29.67R
ESTHERVILLE    CLEAR     23  19  85 N22G28    29.72R WCI   8
LE MARS        CLOUDY    27  21  80 N24       29.73R WCI  12
ORANGE CITY    CLOUDY    25  21  86 N17G25    29.72R WCI  11
SHELDON        CLOUDY    23  19  86 N22       29.72R WCI   8
SIOUX CITY     CLOUDY    30  25  81 N29       29.70S WCI  15
6HR MIN TEMP:  30; 6HR MAX TEMP:  43;

SPENCER        PTCLDY    25  19  78 N22G29    29.72R WCI  10
6HR MIN TEMP:  25; 6HR MAX TEMP:  40;

STORM LAKE     CLOUDY    32  28  86 N18       29.68R WCI  20
$$

ABBREVIATIONS USED IN REMARKS
   TC - TEMPERATURE IN CELSIUS
  WCI - WIND CHILL INDEX
   HX - HEAT INDEX
  VSB - VISIBILITY





USA.gov is the U.S. government's official web portal to all federal, state and local government web resources and services.